[[{"header":{"parameterUnit":"m.s-1","parameterCategory":1,"la1":30.2991,"la2":30.254,"lo1":-89.0895,"lo2":-89.0444,"dy":0.0017,"dx":0.0017,"nx":28,"ny":28,"refTime":"2025-07-12T09:00:00:Z","depth":0,"parameterNumber":2,"parameterNumberName":"U-component_of_WINDS"},"data":[0,0,0,0,0,0,0,0,0,0,0,0,0,0,0,0,0,0,0,0,0,0,0,0,0,0,0,0,0,0,0,0,0,0,0,0,0,0,0,0,0,0,0,0,0,0,0,0,0,0,0,0,0,0,0,0,0,0,-1.0001,-1.0,0,-0.9908,-0.9907,-0.9906,-0.984,-0.984,-0.9839,-0.9839,-0.9742,-0.974,-0.9738,0,0,0,0,0,0,0,0,0,0,0,0,0,-1.0121,-1.0119,-1.0001,-1.0,-0.9999,-0.9909,-0.9907,-0.9906,-0.984,-0.984,-0.9839,-0.9838,-0.9743,-0.9741,-0.9738,0,0,0,0,0,0,0,0,0,0,0,0,0,-1.0053,-1.0118,-1.0001,-0.9955,-0.995,-0.9909,-0.9907,-0.9906,-0.984,-0.984,-0.9839,-0.9838,-0.9744,-0.9741,-0.9738,-0.9735,0,0,-0.9729,-0.9727,0,0,0,0,0,0,0,0,-1.0057,-1.0048,-0.9963,-0.9958,-0.9952,-0.9885,-0.9914,-0.9848,-0.9841,-0.9882,-0.9839,-0.9838,-0.979,-0.9784,-0.9768,-0.9731,-0.9726,-0.9728,-0.9726,-0.9725,-0.9724,0,0,0,0,0,0,0,-1.0061,-1.0052,-0.9964,-0.9962,-0.9955,-0.9939,-0.9928,-0.9902,-0.9842,-0.9878,-0.9873,-0.9863,-0.9787,-0.9771,-0.9765,-0.9725,-0.9728,-0.9726,-0.9724,-0.9722,-0.9683,-0.9683,0,0,0,0,0,0,-1.0073,-1.0056,-0.9967,-0.9962,-1.0004,-0.9938,-0.9926,-0.9907,-0.9842,-0.9831,-0.9864,-0.9861,-0.9777,-0.9769,-0.9762,-0.9755,-0.9725,-0.9722,-0.972,-0.9682,-0.9683,-0.9684,0,0,0,0,0,0,-1.0076,-1.0066,-0.9971,-1.0008,-0.9994,-0.9936,-0.9916,-0.9906,-0.989,-0.9831,-0.982,-0.9858,-0.9776,-0.9766,-0.9743,-0.975,-0.9721,-0.9718,-0.9681,-0.9682,-0.9683,-0.9741,0,0,0,0,0,0,-1.008,-1.0067,-1.0066,-1.0008,-0.9993,-0.9954,-0.9917,-0.9905,-0.9885,-0.9879,-0.9823,-0.9813,-0.9774,-0.9748,-0.974,-0.9746,-0.9716,-0.968,-0.9681,-0.9683,-0.9738,-0.9744,-0.9749,0,0,0,0,0,-1.0084,-1.0085,-1.0066,-1.0055,-0.9989,-0.9954,-0.9945,-0.9902,-0.9885,-0.9883,-0.9846,-0.9815,-0.9751,-0.9746,-0.9736,-0.9741,-0.9679,-0.9681,-0.9683,-0.9735,-0.9743,-0.9749,0,0,0,0,0,0,-1.0144,-1.0076,-1.0054,-1.0036,-1.0002,-0.9943,-0.9939,-0.991,-0.9879,-0.9875,-0.9822,-0.981,-0.9792,-0.9764,-0.976,-0.9736,-0.9711,-0.9711,-0.9755,-0.9761,-0.9767,-0.9773,-0.9713,0,0,0,0,0,-1.0155,-1.0133,-1.0075,-1.0064,-1.0048,-0.9997,-0.998,-0.995,-0.9911,-0.9896,-0.9857,-0.9821,-0.9793,-0.9776,-0.9746,-0.9734,-0.9721,-0.9733,-0.9739,-0.9743,-0.9744,-0.9736,-0.9741,-0.9689,-0.9689,-0.9689,0,0,-1.0177,-1.0138,-1.0127,-1.0075,-1.0045,-1.0023,-0.9985,-0.9963,-0.9946,-0.9892,-0.9868,-0.9839,-0.9795,-0.9778,-0.9768,-0.9754,-0.9756,-0.9746,-0.975,-0.9747,-0.9739,-0.9744,-0.9748,-0.9691,-0.969,-0.969,0,0,-1.0207,-1.0175,-1.0163,-1.0134,-1.0089,-1.0055,-1.0053,-0.9999,-0.9977,-0.9953,-0.9912,-0.9892,-0.9845,-0.9816,-0.9795,-0.9817,-0.9787,-0.9809,-0.9837,-0.983,-0.9834,-0.9838,-0.9846,-0.985,-0.9809,-0.9809,-0.981,0,-1.024,-1.0206,-1.016,-1.0141,-1.0121,-1.0072,-1.0061,-1.0034,-0.9982,-0.9969,-0.9954,-0.9895,-0.9862,-0.9838,-0.9844,-0.9828,-0.9824,-0.9814,-0.9838,-0.9841,-0.9843,-0.985,-0.9854,-0.9812,-0.9812,-0.9812,-0.9811,0,-1.0249,-1.0227,-1.0223,-1.0174,-1.0153,-1.0138,-1.0091,-1.0075,-1.0047,-1.0015,-0.9991,-0.9951,-0.9913,-0.9905,-0.9877,-0.9878,-0.9871,-0.9848,-0.9821,-0.9852,-0.9858,-0.986,-0.9817,-0.9816,-0.9815,-0.9814,0,0,-1.0312,-1.0241,-1.024,-1.0218,-1.0166,-1.0147,-1.0131,-1.0095,-1.0083,-1.0049,-1.0034,-0.9996,-0.9976,-0.9952,-0.9921,-0.9915,-0.9936,-0.9893,-0.9891,-0.9902,-0.9935,-0.9953,-0.9957,-0.9917,-0.9917,-0.9917,-0.9939,0,-1.0334,-1.0301,-1.0261,-1.0242,-1.0221,-1.0176,-1.0162,-1.0129,-1.0099,-1.0077,-1.0044,-1.0018,-0.9992,-0.9978,-0.9971,-0.9935,-0.9942,-0.9933,-0.9902,-0.9902,-0.9914,-0.996,-0.9978,-1.0,-0.9941,-0.9941,-0.9942,0,-1.0354,-1.0324,-1.0304,-1.0255,-1.0245,-1.0232,-1.0197,-1.0177,-1.0139,-1.0118,-1.0093,-1.006,-1.0041,-1.0018,-0.9991,-0.9986,-0.9972,-0.9953,-0.9952,-0.9947,-0.9923,-0.9956,-1.0006,-1.001,-0.9945,-0.9945,-0.9944,0,-1.0403,-1.0357,-1.0339,-1.0322,-1.0264,-1.0257,-1.0233,-1.0194,-1.0176,-1.0146,-1.0133,-1.0101,-1.0083,-1.0059,-1.0019,-1.0006,-0.9997,-0.9971,-0.9979,-0.998,-0.9978,-0.9979,-1.0027,-0.997,-0.9969,-0.9969,-0.9969,0,-1.0431,-1.042,-1.036,-1.0349,-1.0336,-1.0291,-1.028,-1.0251,-1.0218,-1.0201,-1.016,-1.0145,-1.0093,-1.0072,-1.004,-1.0023,-1.0015,-0.9998,-0.999,-1.0002,-1.0004,-0.9991,-0.9988,-0.997,-0.997,-0.997,-0.997,0,-1.0482,-1.0442,-1.0419,-1.0368,-1.0355,-1.0348,-1.0303,-1.0291,-1.026,-1.024,-1.0232,-1.0183,-1.0157,-1.0115,-1.0075,-1.0054,-1.0043,-1.0029,-1.0056,-1.0051,-1.0062,-1.0062,-1.0103,-1.0107,-1.0048,-1.0048,-1.0049,0,-1.0503,-1.0494,-1.0442,-1.0428,-1.0406,-1.0384,-1.0365,-1.0321,-1.0303,-1.0261,-1.0254,-1.0225,-1.0199,-1.0159,-1.012,-1.0091,-1.0075,-1.0092,-1.0071,-1.0084,-1.0076,-1.0077,-1.0077,-1.0097,-1.0098,-1.0099,-1.0099,0,-1.0544,-1.0525,-1.05,-1.0469,-1.0449,-1.0422,-1.0393,-1.0384,-1.0333,-1.0316,-1.0289,-1.0269,-1.023,-1.0202,-1.0167,-1.0142,-1.0113,-1.0107,-1.0107,-1.0119,-1.0135,-1.0127,-1.007,-1.0105,-1.0105,-1.0104,-1.0104,-1.0104,-1.0581,-1.0571,-1.0534,-1.0508,-1.0482,-1.0457,-1.0443,-1.0412,-1.0388,-1.0353,-1.0329,-1.0304,-1.0268,-1.0218,-1.0195,-1.0175,-1.0162,-1.0163,-1.0163,-1.0163,-1.0168,-1.0139,-1.0169,-1.0169,-1.0168,-1.0168,-1.0168,0,-1.062,-1.0595,-1.0572,-1.0533,-1.0513,-1.0488,-1.0456,-1.0441,-1.0419,-1.0388,-1.0364,-1.0334,-1.0307,-1.0267,-1.0237,-1.0229,-1.0215,-1.0223,-1.0223,-1.0218,-1.0182,-1.0184,-1.0235,-1.0235,-1.0235,-1.0235,-1.0235,-1.0235,-1.0639,-1.0622,-1.0599,-1.0569,-1.0543,-1.0518,-1.0502,-1.0479,-1.0454,-1.0422,-1.04,-1.0374,-1.034,-1.0308,-1.0282,-1.0271,-1.0262,-1.0275,-1.0259,-1.0226,-1.022,-1.0214,-1.0217,-1.0273,-1.0273,-1.0297,-1.0297,-1.0298]},{"header":{"parameterUnit":"m.s-1","parameterCategory":1,"la1":30.2991,"la2":30.254,"lo1":-89.0895,"lo2":-89.0444,"dy":0.0017,"dx":0.0017,"nx":28,"ny":28,"refTime":"2025-07-12T09:00:00:Z","depth":0,"parameterNumber":3,"parameterNumberName":"V-component_of_WINDS"},"data":[0,0,0,0,0,0,0,0,0,0,0,0,0,0,0,0,0,0,0,0,0,0,0,0,0,0,0,0,0,0,0,0,0,0,0,0,0,0,0,0,0,0,0,0,0,0,0,0,0,0,0,0,0,0,0,0,0,0,2.9033,2.9032,0,2.8992,2.8991,2.8991,2.9026,2.9028,2.9029,2.903,2.8982,2.898,2.8977,0,0,0,0,0,0,0,0,0,0,0,0,0,2.9137,2.9135,2.9033,2.9032,2.9032,2.8992,2.8991,2.8991,2.9026,2.9028,2.9029,2.9031,2.8983,2.898,2.8977,0,0,0,0,0,0,0,0,0,0,0,0,0,2.9093,2.9134,2.9033,2.9045,2.9045,2.8992,2.8991,2.899,2.9025,2.9028,2.903,2.9032,2.8984,2.898,2.8976,2.8907,0,0,2.8964,2.8962,0,0,0,0,0,0,0,0,2.9096,2.9089,2.9044,2.9044,2.9045,2.9016,2.901,2.8962,2.9025,2.9033,2.9031,2.9033,2.8991,2.8987,2.8974,2.8905,2.8903,2.8964,2.8961,2.896,2.8958,0,0,0,0,0,0,0,2.9099,2.9091,2.9016,2.9043,2.9043,2.905,2.9047,2.9001,2.9,2.9032,2.9035,2.903,2.8992,2.8978,2.8973,2.8902,2.8964,2.896,2.8958,2.8956,2.8773,2.8771,0,0,0,0,0,0,2.9101,2.9094,2.9018,2.9015,2.9076,2.9047,2.9043,2.9023,2.9001,2.8999,2.9028,2.9032,2.8984,2.8978,2.8972,2.8889,2.896,2.8956,2.8954,2.8776,2.8773,2.877,0,0,0,0,0,0,2.9103,2.9094,2.9019,2.9055,2.9046,2.9043,2.902,2.9021,2.9007,2.8997,2.8997,2.9014,2.8985,2.8977,2.8923,2.8887,2.8954,2.895,2.8779,2.8775,2.8771,2.8722,0,0,0,0,0,0,2.9106,2.9095,2.9069,2.9054,2.9044,2.8973,2.9018,2.9019,2.9001,2.9005,2.8984,2.8983,2.8986,2.8929,2.8919,2.8883,2.8947,2.8782,2.8777,2.8773,2.8727,2.8717,2.8709,0,0,0,0,0,2.911,2.9056,2.9068,2.9059,2.9013,2.8971,2.8965,2.8972,2.8998,2.8971,2.8965,2.8983,2.8893,2.8923,2.8912,2.8875,2.8784,2.8778,2.8773,2.8731,2.8719,2.8709,0,0,0,0,0,0,2.9065,2.9054,2.9067,2.9007,2.899,2.8977,2.8944,2.8959,2.8932,2.8937,2.8945,2.894,2.8883,2.8874,2.8907,2.8806,2.8843,2.8835,2.8814,2.8803,2.8794,2.8797,2.8944,0,0,0,0,0,2.9048,2.9017,2.9009,2.8956,2.8947,2.8947,2.8929,2.8936,2.8918,2.891,2.89,2.8879,2.8847,2.8825,2.8794,2.8726,2.8722,2.8695,2.8686,2.8679,2.8671,2.8634,2.8622,2.8752,2.8752,2.8752,0,0,2.9013,2.9003,2.8982,2.8947,2.8934,2.89,2.894,2.8902,2.8876,2.8903,2.8852,2.8844,2.8822,2.8761,2.8733,2.8751,2.8635,2.8672,2.8666,2.8662,2.8627,2.8615,2.8604,2.8748,2.8749,2.8749,0,0,2.8931,2.8921,2.8876,2.8863,2.8845,2.8845,2.8834,2.8819,2.8816,2.8765,2.8784,2.8753,2.8696,2.868,2.8664,2.8577,2.8592,2.8566,2.8519,2.8483,2.8472,2.8463,2.8431,2.842,2.8559,2.8559,2.8559,0,2.8888,2.8839,2.8851,2.8812,2.8795,2.8821,2.8774,2.8761,2.8732,2.8719,2.874,2.867,2.8657,2.8592,2.8571,2.8558,2.8544,2.8568,2.8473,2.8464,2.8456,2.8425,2.8414,2.8556,2.8556,2.8557,2.8557,0,2.8788,2.8753,2.8719,2.8693,2.8673,2.863,2.8634,2.8612,2.8621,2.8619,2.8566,2.8552,2.8518,2.8504,2.8511,2.844,2.8451,2.8473,2.8509,2.844,2.8412,2.84,2.8552,2.8553,2.8554,2.8555,0,0,2.8674,2.8657,2.8644,2.8632,2.8614,2.8586,2.8545,2.8515,2.8495,2.8474,2.8438,2.8391,2.8411,2.8393,2.8399,2.8367,2.8298,2.8393,2.8392,2.8375,2.8217,2.8201,2.8187,2.8309,2.8307,2.8305,2.8219,0,2.8591,2.852,2.853,2.8461,2.8429,2.8453,2.8417,2.8401,2.8398,2.8369,2.8365,2.8331,2.836,2.8349,2.832,2.8313,2.8267,2.832,2.8274,2.8272,2.8278,2.8172,2.8154,2.8073,2.8208,2.8206,2.8205,0,2.8484,2.8462,2.839,2.8378,2.8364,2.8331,2.8304,2.8277,2.8259,2.8259,2.824,2.8252,2.8208,2.8247,2.8186,2.8222,2.8204,2.8198,2.8195,2.819,2.8233,2.8163,2.8048,2.8035,2.8187,2.8189,2.819,0,2.8407,2.8359,2.831,2.83,2.8284,2.826,2.8252,2.8237,2.8218,2.8194,2.8181,2.8152,2.8135,2.8111,2.8115,2.8143,2.8052,2.8092,2.805,2.8049,2.8028,2.8029,2.7907,2.8019,2.8019,2.8019,2.8019,0,2.8312,2.8267,2.8276,2.8245,2.8196,2.8207,2.8157,2.8151,2.8137,2.8105,2.8124,2.8093,2.8101,2.8069,2.8072,2.8021,2.8013,2.8011,2.8011,2.8008,2.8008,2.7995,2.8,2.8016,2.8017,2.8017,2.8018,0,2.8216,2.8221,2.8169,2.8159,2.8156,2.8119,2.811,2.8081,2.808,2.8039,2.803,2.8028,2.7993,2.7995,2.7954,2.7955,2.7892,2.79,2.7899,2.79,2.7858,2.7861,2.7722,2.7704,2.7828,2.7827,2.7826,0,2.8155,2.8121,2.8108,2.8089,2.808,2.8049,2.8031,2.804,2.802,2.7998,2.7971,2.7938,2.7911,2.7853,2.7847,2.7816,2.7822,2.7776,2.7817,2.7815,2.782,2.7822,2.7818,2.7767,2.7766,2.7764,2.7764,0,2.8044,2.8049,2.8023,2.7997,2.7975,2.7955,2.7937,2.7919,2.7927,2.7903,2.7868,2.7848,2.7808,2.7774,2.7744,2.7734,2.7749,2.7751,2.7739,2.7735,2.7735,2.7733,2.7875,2.7753,2.7754,2.7755,2.7756,2.7756,2.7963,2.7935,2.7921,2.7891,2.7879,2.7862,2.7834,2.7831,2.7803,2.7772,2.7779,2.774,2.7722,2.7685,2.7672,2.764,2.7656,2.764,2.7635,2.7631,2.7626,2.7742,2.7635,2.7635,2.7635,2.7635,2.7636,0,2.7853,2.7847,2.7819,2.7794,2.777,2.7789,2.777,2.7748,2.7714,2.7698,2.7672,2.7632,2.76,2.7592,2.756,2.7536,2.7542,2.7527,2.7529,2.7526,2.7613,2.7626,2.7523,2.7523,2.7523,2.7523,2.7523,2.7523,2.7793,2.7746,2.7748,2.7694,2.7687,2.7651,2.7638,2.7621,2.7609,2.7563,2.7537,2.7534,2.752,2.7488,2.7459,2.7457,2.7444,2.7426,2.7427,2.7508,2.752,2.753,2.7542,2.7424,2.7423,2.7342,2.7342,2.7341]}]]